Kodiak, AK

7:49 AM AKST on January 22, 2018 (GMT -0900)
Kodiak

Weather History for PADQ - July, 2013

Change the Weather History Date:

Tuesday, July 2, 2013

  Actual Average Record
Temperature  
Mean Temperature 52 °F 53 °F  
Max Temperature 57 °F 58 °F 82 °F (1989)
Min Temperature 46 °F 48 °F 38 °F (1973)
Degree Days  
Heating Degree Days 13 12  
Month to date heating degree days 27 25  
Since 1 June heating degree days 358 486  
Since 1 July heating degree days 27 25  
Cooling Degree Days 0 0  
Month to date cooling degree days 0 0  
Year to date cooling degree days 3 0  
Since 1 June cooling degree days 3 0  
Growing Degree Days 2 (Base 50)    
Moisture  
Dew Point 44 °F    
Average Humidity 74    
Maximum Humidity 86    
Minimum Humidity 60    
Precipitation  
Precipitation T in 0.16 in 1.70 in (1998)
Month to date precipitation 0.17 0.32  
Year to date precipitation 29.72 37.62  
Snow  
Snow 0.00 in 0.00 in - ()
Month to date snowfall 0.0 0.0  
Since 1 June snowfall 0.0 0.0  
Since 1 July snowfall 0.0 0.0  
Snow Depth 0.00 in    
Sea Level Pressure  
Sea Level Pressure 29.77 in    
Wind  
Wind Speed 5 mph (NNE)    
Max Wind Speed 7 mph    
Max Gust Speed 8 mph    
Visibility 10 miles    
Events      
T = Trace of Precipitation, MM = Missing Value Source: NWS Daily Summary

Daily Weather History Graph

Daily Weather History Graph

Search for Another Location

Airport or City:

Trip Planner

Search our weather history database for the weather conditions in past years. The results will help you decide how hot, cold, wet, or windy it might be!

Date:

Astronomy

Jul. 02, 2013 Rise Set
Actual Time 5:15 AM AKDT 11:11 PM AKDT
Civil Twilight 4:04 AM AKDT 12:22 AM AKDT
Nautical Twilight 2:46 AM AKDT 1:41 AM AKDT
Astronomical Twilight Sun does not rise Sun does not rise
Moon 2:06 AM AKDT (7/2) 6:01 PM AKDT (7/2)
Length of Visible Light 20h 17m
Length of Day
17h 56m
Waning Crescent, 25% of the Moon is Illuminated
Jul 2
Waning Crescent
Jul 7
New
Jul 15
First Quarter
Jul 22
Full
Jul 29
Last Quarter

Hourly Weather History & Observations

Time (AKDT) Temp. Windchill Dew Point Humidity Pressure Visibility Wind Dir Wind Speed Gust Speed Precip Events Conditions
12:53 AM 46.9 °F - 42.1 °F 83% 29.64 in 10.0 mi WNW 5.8 mph - N/A   Mostly Cloudy
1:53 AM 46.9 °F - 42.1 °F 83% 29.65 in 10.0 mi WNW 4.6 mph - N/A   Mostly Cloudy
2:53 AM 46.0 °F 43.1 °F 42.1 °F 86% 29.66 in 10.0 mi West 5.8 mph - N/A   Mostly Cloudy
3:53 AM 46.9 °F - 42.1 °F 83% 29.67 in 10.0 mi West 4.6 mph - N/A   Mostly Cloudy
4:53 AM 46.9 °F - 43.0 °F 86% 29.68 in 10.0 mi Calm Calm - 0.00 in   Mostly Cloudy
5:53 AM 46.9 °F - 43.0 °F 86% 29.69 in 10.0 mi Calm Calm - N/A   Mostly Cloudy
6:53 AM 46.9 °F - 43.0 °F 86% 29.70 in 10.0 mi West 3.5 mph - N/A   Mostly Cloudy
7:53 AM 48.9 °F - 43.0 °F 80% 29.72 in 10.0 mi Calm Calm - N/A   Mostly Cloudy
8:53 AM 51.1 °F - 43.0 °F 74% 29.73 in 10.0 mi NE 3.5 mph - N/A   Mostly Cloudy
9:53 AM 52.0 °F - 44.1 °F 74% 29.75 in 10.0 mi ENE 4.6 mph - N/A   Mostly Cloudy
10:53 AM 54.0 °F - 45.0 °F 72% 29.77 in 10.0 mi East 3.5 mph - N/A   Mostly Cloudy
11:53 AM 54.0 °F - 45.0 °F 72% 29.78 in 10.0 mi East 4.6 mph - N/A   Mostly Cloudy
12:53 PM 54.0 °F - 45.0 °F 72% 29.79 in 10.0 mi East 5.8 mph - N/A   Mostly Cloudy
1:53 PM 55.9 °F - 44.1 °F 64% 29.80 in 10.0 mi ENE 4.6 mph - N/A   Mostly Cloudy
2:53 PM 54.0 °F - 45.0 °F 72% 29.81 in 10.0 mi East 4.6 mph - N/A   Mostly Cloudy
3:53 PM 54.0 °F - 44.1 °F 69% 29.81 in 10.0 mi East 3.5 mph - N/A   Overcast
4:53 PM 55.9 °F - 43.0 °F 62% 29.82 in 10.0 mi NE 3.5 mph - N/A   Overcast
5:53 PM 55.9 °F - 46.0 °F 69% 29.82 in 10.0 mi NE 4.6 mph - N/A   Overcast
6:53 PM 55.9 °F - 46.9 °F 72% 29.83 in 10.0 mi East 3.5 mph - N/A   Overcast
7:53 PM 55.9 °F - 46.0 °F 69% 29.84 in 10.0 mi NNE 3.5 mph - N/A   Overcast
8:53 PM 55.0 °F - 45.0 °F 69% 29.85 in 10.0 mi NW 8.1 mph - N/A   Overcast
9:53 PM 53.1 °F - 44.1 °F 71% 29.87 in 10.0 mi WNW 13.8 mph 20.7 mph N/A   Overcast
10:53 PM 52.0 °F - 45.0 °F 77% 29.88 in 10.0 mi WNW 15.0 mph - N/A   Overcast
11:53 PM 51.1 °F - 45.0 °F 80% 29.90 in 10.0 mi WNW 12.7 mph - N/A   Overcast